1st Responders/1st Detectors/Storm Spotters Weather Summary for Edmonson County, KY

Forecast Maps


Reg. NEXRAD Animation


National Fire Danger: Day 1 & 2 Map

Current NWS Watch/Warnings

SPC Convective Day 1 Outlook


Day 2 Outlook

(Click images to enlarge|Page will refresh every 5 minutes)
UK Ag. Weather Center Desktop Severe Weather Service[HERE]
Edmonson County, KY Hazardous Weather Outlook Webcast
(9 AM to 9 PM Mon-Fri)
[Fast]
[Dial-up]


UKAWC 1st Detectors/1st Responders Precision Weather Forecast For EDMONSON County, Kentucky
(based on the NWS County Digital Forecast)

ISSUED AT 20:00 UTC ON THURSDAY SEP 20 2018
DAY THURSDAY
CDT 3HR 4P 5P 6P
MAX/MIN -- -- 94°
TEMP 92° 90° 88°
SKY COVER 29% 23% 18%
Clouds
DEW PT 67° 67° 68°
RH 43% 46% 53%
POP 12HR -- -- --
RAIN/SNOW (liq.equ) -- -- --
SNOWFALL -- -- --
WIND SPEED(MPH) 5 1 1
WIND Gust(MPH) 6 5 1
WIND DIR S S S
DEW -- -- --
HeatIndex 97 95 92
Rain Showers -- -- --
Thunder Storm -- -- --
WIND CHILL -- -- --
SPRAY COND
DRY COND
LIVESTOCK HEATSTRESS 81.59 80.73 80.45



DAY FRIDAY SATURDAY SUNDAY MONDAY TUESDAY WEDNESDAY
CDT 6HR 7P 8P 9P 10P 11P MIDN 1A 2A 3A 4A 5A 6A 7A 8A 9A 10A 11A NOON 1P 2P 3P 4P 5P 6P 7P 8P 9P 10P 11P MIDN 1A 2A 3A 4A 7A 10A 1P 4P 7P 1A 7A 1P 7P 1A 7A 1P 7P 1A 7A 1P 7P 1A 7A 1P 7P
MAX/MIN -- -- -- -- -- -- -- -- -- -- -- -- 70° -- -- -- -- -- -- -- -- -- -- 88° -- -- -- -- -- -- -- -- -- -- 65° -- -- 74° -- -- 63° 74° -- -- 63° 79° -- -- 67° 81° -- -- 65° 76° --
TEMP 85° 81° 79° 76° 76° 74° 74° 74° 74° 72° 72° 70° 72° 74° 79° 83° 85° 88° 88° 88° 88° 86° 83° 81° 79° 76° 76° 74° 74° 72° 72° 72° 70° 70° 65° 67° 74° 72° 67° 65° 63° 74° 70° 65° 65° 79° 74° 70° 67° 81° 74° 68° 67° 76° 72°
SKY COVER 12% 13% 14% 15% 15% 16% 17% 20% 23% 27% 30% 33% 36% 39% 43% 46% 49% 57% 61% 61% 61% 61% 59% 55% 55% 62% 75% 82% 82% 84% 84% 85% 85% 85% 90% 91% 95% 92% 91% 89% 89% 84% 78% 73% 73% 72% 73% 71% 69% 72% 69% 74% 81% 85% 70%
Clouds
DEW PT 68° 70° 68° 68° 68° 68° 67° 67° 67° 67° 67° 67° 67° 67° 68° 70° 70° 70° 70° 70° 70° 70° 70° 72° 70° 70° 70° 70° 70° 70° 68° 67° 67° 67° 63° 63° 65° 63° 63° 61° 61° 65° 65° 63° 63° 67° 67° 65° 65° 68° 67° 67° 65° 65° 63°
RH 58% 67% 71% 76% 79% 81% 78% 78% 81% 81% 83% 87% 84% 79% 71% 65% 59% 55% 53% 53% 56% 58% 64% 71% 77% 81% 84% 87% 87% 90% 86% 87% 89% 90% 93% 84% 71% 75% 84% 86% 93% 73% 83% 93% 93% 66% 76% 86% 93% 64% 79% 93% 96% 68% 73%
POP 12HR 1% -- -- -- -- -- -- -- -- -- -- -- 2% -- -- -- -- -- -- -- -- -- -- -- 67% -- -- -- -- -- -- -- -- -- 57% -- -- -- 48% -- 42% -- 48% -- 39% -- 34% -- 34% -- 50% -- 61% -- 63%
RAIN/SNOW (liq.equ) 0.00in -- -- -- -- -- 0.00in -- -- -- -- -- 0.00in -- -- -- -- -- 0.00in -- -- -- -- -- 0.07in -- -- -- -- -- 0.16in -- -- -- 0.07in -- 0.11in -- 0.10in -- -- -- -- -- -- -- -- -- -- -- -- -- -- -- --
SNOWFALL 0in -- -- -- -- -- 0in -- -- -- -- -- 0in -- -- -- -- -- 0in -- -- -- -- -- 0in -- -- -- -- -- 0in -- -- -- 0in -- 0in -- 0in -- -- -- -- -- -- -- -- -- -- -- -- -- -- -- --
WIND SPEED(MPH) 1 1 1 1 2 1 2 2 5 5 5 5 6 7 8 9 9 9 9 9 8 7 6 5 2 2 1 1 1 1 2 5 5 6 7 7 7 7 6 6 5 7 6 5 2 7 7 7 7 8 7 6 5 9 7
WIND DIR SE SE SE SE SE S S S S S S S S S S S SW SW SW SW SW SW SW S S SW SW SW W NW N N N N NE NE NE NE NE NE NE NE E E SE S S S S S S S SW W W
HeatIndex 88 85 79 76 76 74 74 74 74 72 72 70 72 74 79 87 90 93 94 94 94 92 88 86 79 76 76 74 74 72 72 72 70 70 65 67 74 72 67 65 63 74 70 65 65 79 74 70 67 85 74 68 67 76 72
Rain Showers -- -- -- -- -- -- -- -- -- -- -- -- -- -- -- Slight Chance Slight Chance Chance Chance Chance Likely Likely Chance Chance Likely Likely Likely Likely Likely Likely Chance Chance Chance Chance Chance Chance Chance Chance Chance Chance Chance Chance Slight Chance Chance Chance Chance Chance Chance Chance Chance Likely Likely Likely Chance Slight Chance
Thunder Storm -- -- -- -- -- -- -- -- -- -- -- -- -- -- -- Slight Chance Slight Chance Slight Chance Slight Chance Slight Chance Slight Chance Chance Chance Chance Chance Chance Chance Chance Chance Chance Slight Chance Slight Chance Slight Chance Slight Chance -- -- -- -- -- Chance Chance Chance Slight Chance Chance Chance Chance Chance Chance Chance Chance Likely Likely Likely Chance Slight Chance
WIND CHILL -- -- -- -- -- -- -- -- -- -- -- -- -- -- -- -- -- -- -- -- -- -- -- -- -- -- -- -- -- -- -- -- -- -- -- -- -- -- -- -- -- -- -- -- -- -- -- -- -- -- -- -- -- -- --
SPRAY COND
DRY COND
LIVESTOCK HEATSTRESS 78.95 76.97 75.78 73.73 74.01 72.41 72.16 72.16 72.41 70.62 70.77 69.20 70.84 72.24 75.78 78.34 79.09 80.77 80.45 80.45 80.93 79.72 78.21 77.46 76.44 74.20 74.49 72.91 72.91 71.27 70.98 71.06 69.32 69.38 64.76 66.28 71.58 70.19 66.28 64.52 62.84 71.74 68.95 64.76 64.76 75.22 71.99 69.14 66.68 76.60 72.24 67.65 66.82 72.97 70.04

Click on individual weather variable above in left-hand column (ie., TEMP, RH, QPF 12HR) to view state forecast maps






NWS 48 Hr. Forecast Maps,

Regional Hourly Observations For EDMONSON County, Kentucky
Issued at 400 PM EDT THU SEP 20 2018
WESTERN AND SOUTH CENTRAL KENTUCKY
  
CITY           SKY/WX    TMP DP  RH WIND       PRES   REMARKS
PADUCAH        PTSUNNY   97  67  37 SW9       29.97F HX 101           
HENDERSON      FAIR      95  68  41 S7        29.98F HX  99           
OWENSBORO      FAIR      94  69  44 VRB5      29.99F HX  99           
HOPKINSVILLE   FAIR      94  62  33 S9        30.01F HX  95           
BOWLING GREEN  FAIR      94  65  38 S8        30.02F HX  96           
GLASGOW        FAIR      94  64  37 S5        30.04F HX  96           


Current NOWCAST not available:
Nowcasts are not issued routinely during fair weather. Only when
precipitation or other significant weather is occuring in this county will these
forecasts be issued. Currently, there is no short term forecast in effect.


Fire Weather Forecast For EDMONSON County, KY
Provided by the National Weather Service:

Issued at: Thu Sep 20 16:05:01 EDT 2018

314 AM EDT Thu Sep 20 2018 /214 AM CDT Thu Sep 20 2018/

                      Today        Tonight      Fri          

CLOUD COVER           MClear       MClear       PCldy        
PRECIP TYPE           NONE         NONE         tstms        
CHANCE PRECIP (%)     0            0            50           
TEMP (24H TREND)      95 (+2)      71 (+1)      89           
RH % (24H TREND)      40 (-6)      86 (-11)     54           
20FTWND-VAL/AM(MPH)   Lgt/Var                   S  7         
20FTWND-RDG/PM(MPH)   S  5         Lgt/Var      SW  7        
PRECIP AMOUNT         0.00         0.00         0.07         
MIXING HGT(FT-AGL/MSL)7089                      5603         
TRANSPORT WND (MPH)   S 10                      SW 18        
VENT RATE (KT-FT)     73381                     90320        
DISPERSION            Good                      Good         
DSI                   MOD UNSTBL   MOD UNSTBL   SLGT UNSTBL  
LAL                   1            1            3            
HAINES INDEX          3            3            3            
ADI EARLY             31 FAIR      2 VERY POOR  41 GEN GOOD  
ADI LATE              49 GEN GOOD  4 VERY POOR  54 GEN GOOD  
MAX LVORI EARLY       7            3            5            
MAX LVORI LATE        1            5            3            

REMARKS...ADI IS ATMOSPHERIC DISPERSION INDEX BY LAVDAS.        
LVORI IS LOW VISIBILITY OCCURRENCE RISK INDEX.

.SATURDAY...Mostly cloudy with a 50 percent chance of showers and
thunderstorms. Lows in the mid 60s. Highs in the mid 70s. South
winds around 5 mph. 
.SUNDAY...Mostly cloudy with a 50 percent chance of showers and
thunderstorms. Lows in the lower 60s. Highs in the mid 70s. North
winds around 5 mph. 
.MONDAY...Mostly cloudy with a 50 percent chance of showers and
thunderstorms. Lows in the lower 60s. Highs around 80. South
winds up to 10 mph. 
.TUESDAY...Mostly cloudy with a 50 percent chance of showers and
thunderstorms. Lows in the upper 60s. Highs in the lower 80s.
South winds 5 to 10 mph. 
.WEDNESDAY...Mostly cloudy with a 50 percent chance of showers
and thunderstorms. Lows in the mid 60s. Highs in the mid 70s.
West winds 5 to 10 mph. 

SPC's Fire Weather Web Tool (Excellent!), SPC's Fire Weather Outlooks, NWS Fire Weather WEB, Fire Danger Class Map,
Keetch-Byram Drought Index, ROMAN Web, Haines Index ,
WFAS's 10-hr Dead Fuel Moist., WFAS's 100-hr Dead Fuel Moist., Probablity of Ignition, Visual blackness Map, Palmer Drought Index, HPC's Rainfall Forecast Maps


Hazardous Weather Outlook For EDMONSON County, Kentucky
352 PM EDT Thu Sep 20 2018 /252 PM CDT Thu Sep 20 2018/

 DAY ONE  Tonight.

No hazardous weather is expected at this time.

 DAYS TWO THROUGH SEVEN  Friday through Wednesday.

Scattered to numberses thunderstorms are expected Friday afternoon
and night across the area as a cold front drops south across the area.
A few strong storms are possible over south-central Indiana and 
north-central and east-central Kentucky. Locally strong wind gusts, 
brief heavy rainfall, and lightning are the main hazards. 

Scattered to numerous thunderstorms are expected Monday into 
Wednesday within a moist unstable air mass across the region and as
another cold front moves through the region Wednesday. Total 
rainfall amounts of 2 to 3 inches with isolated higher amounts are 
possible through Wednesday. A few strong storms also are possible 
Tuesday afternoon or night along the front. Localized flooding is 
possible where storms move over the same locations.

 SPOTTER INFORMATION STATEMENT  

Spotter activation may be required late Friday afternoon and 
evening.

Latest EDMONSON County, Kentucky Watches, Warnings and Advisories.
Additional Drought Info.: UKAWC Drought Page, Kentucky Drought Watch


7-Day Forecast For EDMONSON County, KY

TONIGHT
Mostly clear. Lows in the lower 70s. South winds up to 5 mph.

FRIDAY
Partly cloudy with a 50 percent chance of showers and thunderstorms. Highs in the upper 80s. Southwest winds 5 to 10 mph.

FRIDAY NIGHT
Showers likely and chance of thunderstorms. Lows in the mid 60s. Northwest winds up to 5 mph. Chance of precipitation 60 percent.

SATURDAY
Cloudy with a 50 percent chance of showers. Highs in the lower 70s. Northeast winds 5 to 10 mph.

SATURDAY NIGHT
Cloudy with a 50 percent chance of showers. Lows in the lower 60s. Northeast winds around 5 mph.

SUNDAY
Cloudy with a 50 percent chance of showers. Highs in the lower 70s.

SUNDAY NIGHT
Showers likely. Lows in the mid 60s. Chance of showers 60 percent.

MONDAY
Cloudy with a 50 percent chance of showers and thunderstorms. Highs in the lower 80s.

MONDAY NIGHT
Mostly cloudy with chance of showers and slight chance of thunderstorms. Lows in the upper 60s. Chance of precipitation 50 percent.

TUESDAY
Mostly cloudy with a 50 percent chance of showers and thunderstorms. Highs in the lower 80s.

TUESDAY NIGHT
Showers likely and chance of thunderstorms. Lows in the mid 60s. Chance of precipitation 70 percent.

WEDNESDAY
Mostly cloudy with chance of showers and slight chance of thunderstorms. Highs in the mid 70s. Chance of precipitation 50 percent.

WEDNESDAY NIGHT
Partly cloudy. Lows in the mid 50s.

THURSDAY
Partly cloudy. Highs in the mid 70s.

Ag Weather Center, Department of Biosystems & Agricultural Engineering, University of Kentucky